When you browse on this site, cookies collect data to enhance your experience and personalize the content and advertising you see.
Visit our Privacy Policy to learn more. By continuing to use the site, you agree to this use of cookies and data.

Hourly Weather Korçe

Today, 5 August, Wednesday

Time Temperature Precipitation Wind Pressure Humidity
00:00 +18°C° 0 mm 2 mps 663 mmHg 62%
01:00 +17°C° 0 mm 2 mps 663 mmHg 63%
02:00 +18°C° 0.1 mm 1 mps 663 mmHg 65%
03:00 +16°C° 0.1 mm 1 mps 662 mmHg 66%
04:00 +16°C° 0.1 mm 1 mps 662 mmHg 67%
05:00 +18°C° 0.3 mm 1 mps 662 mmHg 65%
06:00 +20°C° 0.3 mm 1 mps 663 mmHg 63%
07:00 +21°C° 0.3 mm 1 mps 663 mmHg 61%
08:00 +21°C° 0.6 mm 2 mps 664 mmHg 58%
09:00 +24°C° 0.6 mm 3 mps 664 mmHg 54%
10:00 +25°C° 0.6 mm 3 mps 665 mmHg 51%
11:00 +25°C° 1.7 mm 3 mps 665 mmHg 52%
12:00 +25°C° 1.7 mm 3 mps 664 mmHg 54%
13:00 +25°C° 1.7 mm 3 mps 664 mmHg 55%
14:00 +24°C° 1 mm 3 mps 664 mmHg 55%
15:00 +24°C° 1 mm 3 mps 664 mmHg 55%
16:00 +24°C° 1 mm 3 mps 664 mmHg 54%
17:00 +21°C° 0.3 mm 2 mps 663 mmHg 63%
18:00 +19°C° 0.3 mm 2 mps 663 mmHg 72%
19:00 +18°C° 0.3 mm 1 mps 662 mmHg 81%
20:00 +16°C° 0 mm 1 mps 663 mmHg 82%
21:00 +16°C° 0 mm 1 mps 663 mmHg 84%
22:00 +14°C° 0 mm 0 mps 663 mmHg 86%
23:00 +14°C° 0.1 mm 0 mps 663 mmHg 86%

Tomorrow, 6 August, Thursday

Time Temperature Precipitation Wind Pressure Humidity
00:00 +14°C° 0.1 mm 0 mps 663 mmHg 86%
01:00 +15°C° 0.1 mm 1 mps 663 mmHg 86%
02:00 +14°C° 0.2 mm 1 mps 663 mmHg 87%
03:00 +14°C° 0.2 mm 1 mps 663 mmHg 88%
04:00 +14°C° 0.2 mm 1 mps 663 mmHg 89%
05:00 +15°C° 0.4 mm 1 mps 663 mmHg 85%
06:00 +16°C° 0.4 mm 1 mps 664 mmHg 80%
07:00 +19°C° 0.4 mm 1 mps 664 mmHg 76%
08:00 +20°C° 0.7 mm 1 mps 665 mmHg 69%
09:00 +22°C° 0.7 mm 1 mps 665 mmHg 61%
10:00 +23°C° 0.7 mm 1 mps 666 mmHg 54%
11:00 +23°C° 0.9 mm 1 mps 666 mmHg 54%
12:00 +23°C° 0.9 mm 1 mps 666 mmHg 53%
13:00 +23°C° 0.9 mm 1 mps 666 mmHg 53%
14:00 +22°C° 1.9 mm 1 mps 665 mmHg 60%
15:00 +20°C° 1.9 mm 2 mps 665 mmHg 68%
16:00 +19°C° 1.9 mm 2 mps 665 mmHg 75%
17:00 +18°C° 0.9 mm 2 mps 665 mmHg 79%
18:00 +17°C° 0.9 mm 2 mps 665 mmHg 83%
19:00 +16°C° 0.9 mm 2 mps 665 mmHg 87%
20:00 +16°C° 0.1 mm 2 mps 665 mmHg 86%
21:00 +15°C° 0.1 mm 1 mps 665 mmHg 85%
22:00 +15°C° 0.1 mm 1 mps 665 mmHg 84%
23:00 +15°C° 0 mm 1 mps 665 mmHg 84%

Day after tomorrow, 7 August, Friday

Time Temperature Precipitation Wind Pressure Humidity
00:00 +14°C° 0 mm 1 mps 664 mmHg 84%
01:00 +14°C° 0 mm 1 mps 664 mmHg 84%
02:00 +14°C° 0 mm 1 mps 664 mmHg 84%
03:00 +14°C° 0 mm 1 mps 664 mmHg 84%
04:00 +14°C° 0 mm 1 mps 664 mmHg 83%
05:00 +15°C° 0 mm 1 mps 665 mmHg 80%
06:00 +16°C° 0 mm 1 mps 665 mmHg 77%
07:00 +18°C° 0 mm 1 mps 666 mmHg 73%
08:00 +20°C° 0.5 mm 1 mps 666 mmHg 67%
09:00 +22°C° 0.5 mm 1 mps 667 mmHg 62%
10:00 +23°C° 0.5 mm 1 mps 667 mmHg 56%
11:00 +23°C° 1 mm 1 mps 667 mmHg 56%
12:00 +24°C° 1 mm 1 mps 667 mmHg 55%
13:00 +24°C° 1 mm 1 mps 667 mmHg 55%
14:00 +23°C° 1.3 mm 1 mps 667 mmHg 61%
15:00 +22°C° 1.3 mm 1 mps 666 mmHg 68%
16:00 +20°C° 1.3 mm 1 mps 666 mmHg 74%
17:00 +20°C° 1.1 mm 1 mps 666 mmHg 77%
18:00 +19°C° 1.1 mm 1 mps 666 mmHg 81%
19:00 +18°C° 1.1 mm 1 mps 666 mmHg 84%
20:00 +18°C° 0.1 mm 1 mps 666 mmHg 83%
21:00 +16°C° 0.1 mm 1 mps 666 mmHg 83%
22:00 +16°C° 0.1 mm 1 mps 665 mmHg 82%
23:00 +16°C° 0 mm 1 mps 665 mmHg 82%

8 August, Saturday

Time Temperature Precipitation Wind Pressure Humidity
00:00 +16°C° 0 mm 1 mps 665 mmHg 82%
01:00 +16°C° 0 mm 1 mps 665 mmHg 82%
02:00 +16°C° 0 mm 1 mps 665 mmHg 83%
03:00 +15°C° 0 mm 1 mps 664 mmHg 83%
04:00 +15°C° 0 mm 1 mps 664 mmHg 83%
05:00 +16°C° 0.1 mm 1 mps 665 mmHg 80%
06:00 +18°C° 0.1 mm 1 mps 665 mmHg 78%
07:00 +19°C° 0.1 mm 1 mps 665 mmHg 75%
08:00 +21°C° 0.3 mm 1 mps 666 mmHg 69%
09:00 +22°C° 0.3 mm 1 mps 666 mmHg 63%
10:00 +23°C° 0.3 mm 1 mps 666 mmHg 58%
11:00 +23°C° 0.2 mm 1 mps 666 mmHg 55%
12:00 +24°C° 0.2 mm 1 mps 666 mmHg 52%
13:00 +24°C° 0.2 mm 2 mps 666 mmHg 49%
14:00 +24°C° 0.2 mm 2 mps 666 mmHg 51%
15:00 +24°C° 0.2 mm 2 mps 666 mmHg 53%
16:00 +23°C° 0.2 mm 2 mps 665 mmHg 55%
17:00 +20°C° 0.5 mm 2 mps 665 mmHg 63%
18:00 +20°C° 0.5 mm 1 mps 665 mmHg 72%
19:00 +18°C° 0.5 mm 1 mps 665 mmHg 80%
20:00 +18°C° 0 mm 1 mps 665 mmHg 80%
21:00 +16°C° 0 mm 1 mps 665 mmHg 80%
22:00 +16°C° 0 mm 2 mps 665 mmHg 80%
23:00 +15°C° 0 mm 2 mps 664 mmHg 81%

9 August, Sunday

Time Temperature Precipitation Wind Pressure Humidity
00:00 +15°C° 0 mm 2 mps 664 mmHg 82%
01:00 +15°C° 0 mm 2 mps 664 mmHg 83%
02:00 +15°C° 0 mm 2 mps 664 mmHg 84%
03:00 +15°C° 0 mm 2 mps 664 mmHg 85%
04:00 +15°C° 0 mm 2 mps 663 mmHg 86%
05:00 +15°C° 0 mm 2 mps 664 mmHg 83%
06:00 +16°C° 0 mm 2 mps 664 mmHg 80%
07:00 +17°C° 0 mm 2 mps 665 mmHg 77%
08:00 +19°C° 0 mm 2 mps 665 mmHg 67%
09:00 +21°C° 0 mm 2 mps 666 mmHg 58%
10:00 +24°C° 0 mm 2 mps 667 mmHg 48%
11:00 +25°C° 0 mm 2 mps 667 mmHg 45%
12:00 +26°C° 0 mm 2 mps 667 mmHg 41%
13:00 +27°C° 0 mm 2 mps 667 mmHg 38%
14:00 +26°C° 0.1 mm 2 mps 667 mmHg 40%
15:00 +26°C° 0.1 mm 2 mps 666 mmHg 43%
16:00 +26°C° 0.1 mm 2 mps 666 mmHg 45%
17:00 +24°C° 0.1 mm 2 mps 666 mmHg 53%
18:00 +22°C° 0.1 mm 1 mps 666 mmHg 60%
19:00 +20°C° 0.1 mm 1 mps 665 mmHg 68%
20:00 +19°C° 0 mm 1 mps 665 mmHg 70%
21:00 +19°C° 0 mm 1 mps 665 mmHg 71%
22:00 +18°C° 0 mm 1 mps 665 mmHg 73%
23:00 +18°C° 0 mm 1 mps 665 mmHg 73%

10 August, Monday

Time Temperature Precipitation Wind Pressure Humidity
00:00 +18°C° 0 mm 1 mps 665 mmHg 73%
01:00 +16°C° 0 mm 1 mps 665 mmHg 73%
02:00 +16°C° 0 mm 1 mps 665 mmHg 74%
03:00 +16°C° 0 mm 1 mps 665 mmHg 74%
04:00 +16°C° 0 mm 1 mps 665 mmHg 75%
05:00 +18°C° 0 mm 1 mps 665 mmHg 70%
06:00 +20°C° 0 mm 1 mps 666 mmHg 66%
07:00 +22°C° 0 mm 1 mps 667 mmHg 61%
08:00 +23°C° 0 mm 1 mps 667 mmHg 55%
09:00 +25°C° 0 mm 1 mps 668 mmHg 49%
10:00 +25°C° 0 mm 0 mps 668 mmHg 43%
11:00 +27°C° 0.1 mm 1 mps 668 mmHg 41%
12:00 +28°C° 0.1 mm 1 mps 668 mmHg 40%
13:00 +28°C° 0.1 mm 2 mps 668 mmHg 39%
14:00 +27°C° 0.1 mm 2 mps 668 mmHg 42%
15:00 +26°C° 0.1 mm 2 mps 667 mmHg 45%
16:00 +26°C° 0.1 mm 2 mps 667 mmHg 49%
17:00 +24°C° 0.1 mm 2 mps 667 mmHg 53%
18:00 +23°C° 0.1 mm 1 mps 667 mmHg 58%
19:00 +21°C° 0.1 mm 1 mps 667 mmHg 63%
20:00 +21°C° 0 mm 1 mps 667 mmHg 65%
21:00 +20°C° 0 mm 1 mps 667 mmHg 68%
22:00 +19°C° 0 mm 1 mps 667 mmHg 70%
23:00 +19°C° 0 mm 1 mps 667 mmHg 71%
Show more